Regional Weather Roundup
Issued by NWS

Home | Current Version | Previous Version | Graphics & Text | Print | Product List | Glossary On
Versions: 1 2 3 4 5 6 7 8 9 10 11 12 13 14 15 16 17 18 19 20 21 22 23 24 25 26 27 28 29 30 31 32 33 34 35 36 37 38 39 40 41 42 43 44 45 46 47 48 49 50
000
ASUS43 KMKX 261721
RWRWI

WISCONSIN REGIONAL WEATHER ROUNDUP
NATIONAL WEATHER SERVICE MILWAUKEE/SULLIVAN WI
1100 AM CST THU FEB 26 2015

NOTE: "FAIR" INDICATES FEW OR NO CLOUDS BELOW 12,000 FEET WITH NO
SIGNIFICANT WEATHER AND/OR OBSTRUCTIONS TO VISIBILITY.

WIZ001-002-006>008-014>016-023>028-261800-
NORTHWEST WISCONSIN

CITY           SKY/WX    TMP DP  RH WIND       PRES   REMARKS
SUPERIOR ARPT  SUNNY      3 -11  52 NW9       30.46F WCI -11
ASHLAND        CLOUDY     5  -8  55 N9        30.41S WCI  -9
HAYWARD        PTSUNNY    3  -9  57 N7        30.37R WCI  -9
SIREN          SUNNY      4 -10  50 N8        30.42S WCI  -9
CUMBERLAND     SUNNY      3  -8  60 NW9       30.38R WCI -11
RICE LAKE      SUNNY      4  -8  57 N7        30.41S WCI  -9
CHETEK         SUNNY      3  -8  60 NW6       30.40R WCI  -8
LADYSMITH      CLOUDY     6  -6  58 NW5       30.37S WCI  -3
EAU CLAIRE     SUNNY      4  -7  60 VRB7      30.40R WCI  -8
MENOMONIE      SUNNY      6  -8  51 NW6       30.42R WCI  -4
NEW RICHMOND   SUNNY      3  -9  57 N7        30.43S WCI -10
OSCEOLA        SUNNY      3 -10  56 NW7       30.48S WCI -10
$$

WIZ003>005-009-010-017-018-261800-
NORTH CENTRAL WISCONSIN

CITY           SKY/WX    TMP DP  RH WIND       PRES   REMARKS
MANITOWISH WTR CLOUDY     2 -10  59 NW10      30.27S WCI -14
ARBOR VITAE    PTSUNNY    2  -8  63 N7        30.27S HAZE    WCI -10
WOODRUFF       PTSUNNY    2  -8  63 N7        30.27S HAZE    WCI -10
RHINELANDER    PTSUNNY    3  -9  57 NW9       30.26S WCI -12
EAGLE RIVER    SUNNY      2 -11  54 N9        30.25S WCI -13
LAND O LAKES   CLOUDY     2 -10  59 NW8       30.26S HAZE    WCI -12
PHILLIPS       CLOUDY     3  -9  58 N8        30.30S WCI -11
TOMAHAWK       SUNNY      3 -10  54 N7        30.29S WCI  -9
MEDFORD        SUNNY      3  -9  56 N9        30.29S WCI -11
MERRILL        MOSUNNY    4  -9  52 N5        30.29F WCI  -5
$$

WIZ029-030-035-036-043>047-261800-
CENTRAL WISCONSIN

CITY           SKY/WX    TMP DP  RH WIND       PRES   REMARKS
WAUSAU         MOSUNNY    4  -9  55 N10       30.29S WCI -11
MOSINEE        MOSUNNY    3  -6  66 N12G18    30.31S WCI -13
MARSHFIELD     SUNNY      5  -8  55 NW13      30.31R WCI -12
STEVENS POINT  MOSUNNY    4 -10  50 NW10      30.31S WCI -11
WAUPACA        SUNNY     11  -6  47 NW5       30.33F WCI   2
WAUTOMA        SUNNY      9  -8  45 NE13      30.33S WCI  -6
WISC RAPIDS    SUNNY      7  -8  50 N7        30.34S WCI  -5
CAMP DOUGLAS   MOSUNNY   10  -4  52 NW5       30.35R WCI   2
$$

WIZ011>013-019>022-031-037>040-048>050-261800-
NORTHEAST WISCONSIN

CITY           SKY/WX    TMP DP  RH WIND       PRES   REMARKS
ANTIGO         SUNNY      2  -8  60 N9        30.26S WCI -12
SHAWANO        MOSUNNY   10  -5  50 N5        30.33S WCI   2
OCONTO         MOSUNNY    6  -6  56 NE10G16   30.34S WCI  -8
STURGEON BAY   SUNNY      5  -6  61 N15       30.33S WCI -13
GREEN BAY      MOSUNNY    9  -5  53 N10       30.33S WCI  -5
MANITOWOC      SUNNY      8  -4  58 N13       30.31R WCI  -8
APPLETON       MOSUNNY    7  -6  56 N12       30.32R WCI  -9
CLINTONVILLE   SUNNY      9  -6  52 N9        30.32F WCI  -5
OSHKOSH        SUNNY      8  -5  55 NE10      30.31S WCI  -6
$$

WIZ032>034-041-042-053>061-261800-
SOUTHWEST WISCONSIN

CITY           SKY/WX    TMP DP  RH WIND       PRES   REMARKS
LA CROSSE      SUNNY      8  -4  58 NW9       30.41R WCI  -5
SPARTA         SUNNY      9  -6  51 N7        30.38S WCI  -2
VIROQUA        SUNNY      7  -6  55 N8        30.32R WCI  -6
BOSCOBEL       SUNNY     11  -7  44 N12       30.37R WCI  -3
PRAIRIE DU CHI SUNNY      8  -7  49 NW10      30.38R WCI  -6
PLATTEVILLE    SUNNY      7  -4  61 NW13      30.31R WCI -10
$$

WIZ056-057-062-063-064-067-068-261800-
SOUTH CENTRAL WISCONSIN

CITY           SKY/WX    TMP DP  RH WIND       PRES   REMARKS
REEDSBURG      SUNNY      7  -6  55 N9        30.33R WCI  -6
BARABOO/DELLS  SUNNY      8  -7  50 N7        30.32R WCI  -4
LONE ROCK      SUNNY      9  -8  46 VRB6G17   30.35R WCI  -1
MINERAL POINT  SUNNY     10  -6  48 N10       30.29R WCI  -3
MADISON        MOSUNNY    8  -6  52 N12       30.31R WCI  -7
MIDDLETON      SUNNY     10  -5  51 N8        30.32R WCI  -2
WATERTOWN      SUNNY     10  -1  61 N13       30.29R WCI  -5
MONROE         SUNNY      9  -2  61 N12       30.27R WCI  -6
JANESVILLE     PTSUNNY   12  -4  48 N8        30.28R WCI   1
$$

WIZ051-052-058>065-066-070>072-261800-
SOUTHEAST WISCONSIN

CITY           SKY/WX    TMP DP  RH WIND       PRES   REMARKS
MILWAUKEE      PTSUNNY   14   0  53 N12       30.26R WCI   0
WAUKESHA       MOSUNNY    9  -2  61 NW12      30.26R WCI  -6
MILWAUKEE/TIMM SUNNY     12  -2  52 N12       30.27R WCI  -2
RACINE         LGT SNOW  14   7  73 N15       30.26R WCI  -1
BURLINGTON     SUNNY     13  -4  47 N10       30.26R WCI   0
KENOSHA        MOSUNNY   13   2  61 N10       30.25R WCI   0
FOND DU LAC    SUNNY      7  -6  55 N17       30.31S WCI -12
SHEBOYGAN      SUNNY     10  -6  48 N16       30.28R WCI  -7
WEST BEND      SUNNY     10  -4  52 N10       30.27R WCI  -3
JUNEAU         SUNNY      8  -4  58 N15G21    30.30R WCI  -9
$$

LSZ147-162-261800-
LAKE SUPERIOR

STATION/POSITION TIME  TEMP    WIND        PRES    WAVE
                       AIR SEA DIR/SP/G            HT/PER
                 (UTC) (F)     (DEG/KT/KT) (MB)    (FT/S)
DEVILS ISLAND    1700    2     300/  9/ 12 1032.3R
PORT WING        1640    3     310/  6/ 12 1030.8R
SAXON HARBOR     1600    4     320/  7/  9 1029.5R
$$

LMZ867-665-643>646-261800-
LAKE MICHIGAN

STATION/POSITION TIME  TEMP    WIND        PRES    WAVE
                       AIR SEA DIR/SP/G            HT/PER
                 (UTC) (F)     (DEG/KT/KT) (MB)    (FT/S)
NORTHPORT PIER   1620    4     330/ 10/ 15 1027.1R
KEWAUNEE LAKESHO 1700    7      10/ 12/ 17 1025.7R
SHEBOYGAN LAKESH 1700    9     350/ 16/ 18 1027.3R
PORT WASHINGTON  1600    9     330/  6/ 18 1026.1R
MILWAUKEE LAKESH 1700   12      20/ 17/ 21   N/A
KENOSHA   LAKESH 1700   14     350/ 17/ 23 1024.0R
$$

TC  - TEMPERATURE IN CELSIUS
VSB - VISIBILITY IN STATUTE MILES
WCI - WIND CHILL INDEX
HX  - HEAT INDEX




USA.gov is the U.S. government's official web portal to all federal, state and local government web resources and services.